Tabellarische Ansicht des 14.8.2022


Die einzelnen Werte des Tages

Uhrzeit Temperatur Luftdruck Luftfeuchte Wind Hi-Wind Taupunkt THW Index Wind Chill Heat Index Solar- strahlung Regen

00:00

22.1 C

1011.3 hpa

65 %

1.6 km/h aus 116

6.4 km/h aus NNE

15.2 C

22.2 C

22.1 C

22.2 C

0 W/m

0.00 mm

00:05

22.1 C

1011.3 hpa

65 %

1.6 km/h aus 116

8.0 km/h aus NNE

15.2 C

22.2 C

22.1 C

22.2 C

0 W/m

0.00 mm

00:10

22.0 C

1011.3 hpa

65 %

1.6 km/h aus 117

8.0 km/h aus NE

15.1 C

22.1 C

22.0 C

22.1 C

0 W/m

0.00 mm

00:15

21.9 C

1011.1 hpa

65 %

1.6 km/h aus 114

9.7 km/h aus NNE

15.1 C

22.0 C

21.9 C

22.0 C

0 W/m

0.00 mm

00:20

21.9 C

1011.1 hpa

65 %

0.0 km/h aus 117

4.8 km/h aus NE

15.0 C

21.9 C

21.9 C

21.9 C

0 W/m

0.00 mm

00:25

21.8 C

1011.1 hpa

65 %

0.0 km/h aus 116

4.8 km/h aus NNE

15.0 C

21.8 C

21.8 C

21.8 C

0 W/m

0.00 mm

00:30

21.8 C

1011.1 hpa

66 %

0.0 km/h aus 117

0.0 km/h aus ---

15.1 C

21.8 C

21.8 C

21.8 C

0 W/m

0.00 mm

00:35

21.7 C

1011.1 hpa

66 %

0.0 km/h aus 115

0.0 km/h aus ---

15.1 C

21.7 C

21.7 C

21.7 C

0 W/m

0.00 mm

00:40

21.6 C

1011.1 hpa

66 %

0.0 km/h aus 116

0.0 km/h aus ---

15.0 C

21.6 C

21.6 C

21.6 C

0 W/m

0.00 mm

00:45

21.6 C

1011.1 hpa

66 %

0.0 km/h aus 117

0.0 km/h aus ---

14.9 C

21.6 C

21.6 C

21.6 C

0 W/m

0.00 mm

00:50

21.4 C

1011.1 hpa

66 %

0.0 km/h aus 117

0.0 km/h aus ---

14.8 C

21.4 C

21.4 C

21.4 C

0 W/m

0.00 mm

00:55

21.4 C

1011.1 hpa

66 %

0.0 km/h aus 115

0.0 km/h aus ---

14.8 C

21.3 C

21.4 C

21.3 C

0 W/m

0.00 mm

01:00

21.3 C

1011.0 hpa

66 %

0.0 km/h aus 115

0.0 km/h aus ---

14.7 C

21.2 C

21.3 C

21.2 C

0 W/m

0.00 mm

01:05

21.2 C

1011.0 hpa

66 %

0.0 km/h aus 115

0.0 km/h aus ---

14.6 C

21.1 C

21.2 C

21.1 C

0 W/m

0.00 mm

01:10

21.1 C

1011.0 hpa

66 %

0.0 km/h aus 117

0.0 km/h aus ---

14.5 C

21.0 C

21.1 C

21.0 C

0 W/m

0.00 mm

01:15

21.0 C

1010.8 hpa

66 %

0.0 km/h aus 116

0.0 km/h aus ---

14.4 C

20.9 C

21.0 C

20.9 C

0 W/m

0.00 mm

01:20

20.9 C

1010.8 hpa

67 %

0.0 km/h aus 115

0.0 km/h aus ---

14.5 C

20.9 C

20.9 C

20.9 C

0 W/m

0.00 mm

01:25

20.8 C

1010.8 hpa

67 %

0.0 km/h aus 117

0.0 km/h aus ---

14.5 C

20.8 C

20.8 C

20.8 C

0 W/m

0.00 mm

01:30

20.8 C

1010.6 hpa

68 %

0.0 km/h aus 116

0.0 km/h aus ---

14.7 C

20.8 C

20.8 C

20.8 C

0 W/m

0.00 mm

01:35

20.7 C

1010.6 hpa

70 %

0.0 km/h aus 116

6.4 km/h aus NNE

15.0 C

20.8 C

20.7 C

20.8 C

0 W/m

0.00 mm

01:40

20.6 C

1010.6 hpa

70 %

1.6 km/h aus 114

4.8 km/h aus NNE

14.9 C

20.8 C

20.6 C

20.8 C

0 W/m

0.00 mm

01:45

20.5 C

1010.6 hpa

71 %

0.0 km/h aus 117

0.0 km/h aus ---

15.1 C

20.8 C

20.5 C

20.8 C

0 W/m

0.00 mm

01:50

20.4 C

1010.6 hpa

71 %

0.0 km/h aus 116

0.0 km/h aus ---

15.0 C

20.7 C

20.4 C

20.7 C

0 W/m

0.00 mm

01:55

20.3 C

1010.6 hpa

71 %

0.0 km/h aus 117

0.0 km/h aus ---

14.9 C

20.7 C

20.3 C

20.7 C

0 W/m

0.00 mm

02:00

20.3 C

1010.5 hpa

71 %

0.0 km/h aus 114

0.0 km/h aus ---

14.8 C

20.6 C

20.3 C

20.6 C

0 W/m

0.00 mm

02:05

20.2 C

1010.5 hpa

71 %

0.0 km/h aus 115

0.0 km/h aus ---

14.8 C

20.6 C

20.2 C

20.6 C

0 W/m

0.00 mm

02:10

20.1 C

1010.5 hpa

71 %

0.0 km/h aus 116

0.0 km/h aus ---

14.7 C

20.4 C

20.1 C

20.4 C

0 W/m

0.00 mm

02:15

20.1 C

1010.5 hpa

71 %

0.0 km/h aus 117

0.0 km/h aus ---

14.6 C

20.4 C

20.1 C

20.4 C

0 W/m

0.00 mm

02:20

19.9 C

1010.5 hpa

71 %

0.0 km/h aus 116

0.0 km/h aus ---

14.5 C

20.3 C

19.9 C

20.3 C

0 W/m

0.00 mm

02:25

19.9 C

1010.5 hpa

72 %

0.0 km/h aus 114

0.0 km/h aus ---

14.7 C

20.3 C

19.9 C

20.3 C

0 W/m

0.00 mm

02:30

19.8 C

1010.5 hpa

73 %

0.0 km/h aus 117

0.0 km/h aus ---

14.8 C

20.2 C

19.8 C

20.2 C

0 W/m

0.00 mm

02:35

19.7 C

1010.5 hpa

73 %

0.0 km/h aus 115

0.0 km/h aus ---

14.7 C

20.1 C

19.7 C

20.1 C

0 W/m

0.00 mm

02:40

19.7 C

1010.5 hpa

73 %

0.0 km/h aus 116

0.0 km/h aus ---

14.7 C

20.1 C

19.7 C

20.1 C

0 W/m

0.00 mm

02:45

19.6 C

1010.3 hpa

73 %

0.0 km/h aus 115

0.0 km/h aus ---

14.6 C

19.9 C

19.6 C

19.9 C

0 W/m

0.00 mm

02:50

19.4 C

1010.3 hpa

73 %

0.0 km/h aus 116

0.0 km/h aus ---

14.5 C

19.8 C

19.4 C

19.8 C

0 W/m

0.00 mm

02:55

19.3 C

1010.3 hpa

73 %

0.0 km/h aus 117

0.0 km/h aus ---

14.4 C

19.6 C

19.3 C

19.6 C

0 W/m

0.00 mm

03:00

19.2 C

1010.3 hpa

73 %

0.0 km/h aus 116

0.0 km/h aus ---

14.3 C

19.5 C

19.2 C

19.5 C

0 W/m

0.00 mm

03:05

19.1 C

1010.3 hpa

73 %

0.0 km/h aus 114

0.0 km/h aus ---

14.2 C

19.4 C

19.1 C

19.4 C

0 W/m

0.00 mm

03:10

19.0 C

1010.3 hpa

73 %

0.0 km/h aus 117

0.0 km/h aus ---

14.0 C

19.2 C

19.0 C

19.2 C

0 W/m

0.00 mm

03:15

18.8 C

1010.2 hpa

73 %

0.0 km/h aus 116

0.0 km/h aus ---

13.9 C

19.1 C

18.8 C

19.1 C

0 W/m

0.00 mm

03:20

18.7 C

1010.2 hpa

73 %

0.0 km/h aus 117

0.0 km/h aus ---

13.7 C

18.8 C

18.7 C

18.8 C

0 W/m

0.00 mm

03:25

18.6 C

1010.2 hpa

74 %

0.0 km/h aus 115

0.0 km/h aus ---

13.8 C

18.7 C

18.6 C

18.7 C

0 W/m

0.00 mm

03:30

18.4 C

1010.0 hpa

74 %

0.0 km/h aus 116

0.0 km/h aus ---

13.7 C

18.6 C

18.4 C

18.6 C

0 W/m

0.00 mm

03:35

18.3 C

1010.0 hpa

74 %

0.0 km/h aus 117

1.6 km/h aus NNE

13.6 C

18.4 C

18.3 C

18.4 C

0 W/m

0.00 mm

03:40

18.2 C

1010.0 hpa

74 %

0.0 km/h aus 117

0.0 km/h aus ---

13.5 C

18.3 C

18.2 C

18.3 C

0 W/m

0.00 mm

03:45

18.1 C

1009.9 hpa

75 %

0.0 km/h aus 116

0.0 km/h aus ---

13.6 C

18.2 C

18.1 C

18.2 C

0 W/m

0.00 mm

03:50

18.0 C

1009.9 hpa

75 %

0.0 km/h aus 115

0.0 km/h aus ---

13.5 C

18.1 C

18.0 C

18.1 C

0 W/m

0.00 mm

03:55

17.9 C

1009.9 hpa

75 %

0.0 km/h aus 117

0.0 km/h aus ---

13.4 C

18.1 C

17.9 C

18.1 C

0 W/m

0.00 mm

04:00

17.9 C

1009.8 hpa

76 %

0.0 km/h aus 117

0.0 km/h aus ---

13.7 C

18.1 C

17.9 C

18.1 C

0 W/m

0.00 mm

04:05

17.9 C

1009.8 hpa

77 %

0.0 km/h aus 117

0.0 km/h aus ---

13.9 C

18.1 C

17.9 C

18.1 C

0 W/m

0.00 mm

04:10

17.9 C

1009.8 hpa

78 %

0.0 km/h aus 115

0.0 km/h aus ---

14.0 C

18.1 C

17.9 C

18.1 C

0 W/m

0.00 mm

04:15

17.8 C

1009.6 hpa

78 %

0.0 km/h aus 116

0.0 km/h aus ---

13.9 C

18.1 C

17.8 C

18.1 C

0 W/m

0.00 mm

04:20

17.8 C

1009.6 hpa

78 %

0.0 km/h aus 117

0.0 km/h aus ---

13.9 C

17.9 C

17.8 C

17.9 C

0 W/m

0.00 mm

04:25

17.7 C

1009.6 hpa

78 %

0.0 km/h aus 117

0.0 km/h aus ---

13.8 C

17.9 C

17.7 C

17.9 C

0 W/m

0.00 mm

04:30

17.7 C

1009.5 hpa

78 %

0.0 km/h aus 116

0.0 km/h aus ---

13.8 C

17.8 C

17.7 C

17.8 C

0 W/m

0.00 mm

04:35

17.6 C

1009.5 hpa

78 %

0.0 km/h aus 113

0.0 km/h aus ---

13.7 C

17.8 C

17.6 C

17.8 C

0 W/m

0.00 mm

04:40

17.6 C

1009.5 hpa

79 %

0.0 km/h aus 117

0.0 km/h aus ---

13.9 C

17.7 C

17.6 C

17.7 C

0 W/m

0.00 mm

04:45

17.5 C

1009.4 hpa

79 %

0.0 km/h aus 116

0.0 km/h aus ---

13.8 C

17.7 C

17.5 C

17.7 C

0 W/m

0.00 mm

04:50

17.4 C

1009.4 hpa

79 %

0.0 km/h aus 117

0.0 km/h aus ---

13.8 C

17.6 C

17.4 C

17.6 C

0 W/m

0.00 mm

04:55

17.4 C

1009.4 hpa

79 %

0.0 km/h aus 115

0.0 km/h aus ---

13.7 C

17.6 C

17.4 C

17.6 C

0 W/m

0.00 mm

05:00

17.3 C

1009.2 hpa

80 %

0.0 km/h aus 116

0.0 km/h aus ---

13.8 C

17.5 C

17.3 C

17.5 C

0 W/m

0.00 mm

05:05

17.3 C

1009.2 hpa

80 %

0.0 km/h aus 117

0.0 km/h aus ---

13.8 C

17.4 C

17.3 C

17.4 C

0 W/m

0.00 mm

05:10

17.2 C

1009.2 hpa

81 %

0.0 km/h aus 116

0.0 km/h aus ---

13.9 C

17.4 C

17.2 C

17.4 C

0 W/m

0.00 mm

05:15

17.2 C

1009.1 hpa

81 %

1.6 km/h aus 116

8.0 km/h aus NNE

13.9 C

17.3 C

17.2 C

17.3 C

0 W/m

0.00 mm

05:20

17.2 C

1009.1 hpa

81 %

0.0 km/h aus 115

0.0 km/h aus ---

13.9 C

17.3 C

17.2 C

17.3 C

0 W/m

0.00 mm

05:25

17.1 C

1009.1 hpa

82 %

0.0 km/h aus 117

1.6 km/h aus N

14.0 C

17.3 C

17.1 C

17.3 C

0 W/m

0.00 mm

05:30

17.1 C

1008.9 hpa

82 %

1.6 km/h aus 116

6.4 km/h aus N

14.0 C

17.3 C

17.1 C

17.3 C

0 W/m

0.00 mm

05:35

17.1 C

1008.9 hpa

82 %

1.6 km/h aus 116

4.8 km/h aus N

14.0 C

17.3 C

17.1 C

17.3 C

0 W/m

0.00 mm

05:40

17.1 C

1008.9 hpa

83 %

0.0 km/h aus 113

0.0 km/h aus ---

14.2 C

17.3 C

17.1 C

17.3 C

0 W/m

0.00 mm

05:45

17.1 C

1008.9 hpa

83 %

0.0 km/h aus 116

0.0 km/h aus ---

14.1 C

17.3 C

17.1 C

17.3 C

0 W/m

0.00 mm

05:50

17.0 C

1008.9 hpa

83 %

0.0 km/h aus 116

0.0 km/h aus ---

14.1 C

17.2 C

17.0 C

17.2 C

0 W/m

0.00 mm

05:55

16.9 C

1008.9 hpa

83 %

0.0 km/h aus 116

0.0 km/h aus ---

14.0 C

17.1 C

16.9 C

17.1 C

0 W/m

0.00 mm

06:00

16.9 C

1008.8 hpa

83 %

0.0 km/h aus 115

0.0 km/h aus ---

14.0 C

17.1 C

16.9 C

17.1 C

4 W/m

0.00 mm

06:05

16.9 C

1008.8 hpa

83 %

0.0 km/h aus 115

0.0 km/h aus ---

14.0 C

17.1 C

16.9 C

17.1 C

6 W/m

0.00 mm

06:10

16.8 C

1008.8 hpa

83 %

0.0 km/h aus 117

0.0 km/h aus ---

13.9 C

16.9 C

16.8 C

16.9 C

9 W/m

0.00 mm

06:15

16.8 C

1008.6 hpa

83 %

0.0 km/h aus 117

0.0 km/h aus ---

13.9 C

16.9 C

16.8 C

16.9 C

11 W/m

0.00 mm

06:20

16.7 C

1008.6 hpa

83 %

0.0 km/h aus 117

0.0 km/h aus ---

13.8 C

16.8 C

16.7 C

16.8 C

15 W/m

0.00 mm

06:25

16.6 C

1008.6 hpa

83 %

0.0 km/h aus 113

0.0 km/h aus ---

13.7 C

16.7 C

16.6 C

16.7 C

19 W/m

0.00 mm

06:30

16.6 C

1008.4 hpa

83 %

0.0 km/h aus 115

0.0 km/h aus ---

13.7 C

16.7 C

16.6 C

16.7 C

22 W/m

0.00 mm

06:35

16.5 C

1008.4 hpa

83 %

0.0 km/h aus 116

0.0 km/h aus ---

13.6 C

16.6 C

16.5 C

16.6 C

25 W/m

0.00 mm

06:40

16.5 C

1008.4 hpa

83 %

0.0 km/h aus 117

0.0 km/h aus ---

13.6 C

16.6 C

16.5 C

16.6 C

34 W/m

0.00 mm

06:45

16.6 C

1008.4 hpa

84 %

0.0 km/h aus 115

0.0 km/h aus ---

13.8 C

16.7 C

16.6 C

16.7 C

37 W/m

0.00 mm

06:50

16.6 C

1008.4 hpa

84 %

0.0 km/h aus 113

0.0 km/h aus ---

13.8 C

16.7 C

16.6 C

16.7 C

38 W/m

0.00 mm

06:55

16.6 C

1008.4 hpa

84 %

0.0 km/h aus 116

0.0 km/h aus ---

13.8 C

16.7 C

16.6 C

16.7 C

50 W/m

0.00 mm

07:00

16.6 C

1008.4 hpa

85 %

0.0 km/h aus 117

0.0 km/h aus ---

14.1 C

16.8 C

16.6 C

16.8 C

47 W/m

0.00 mm

07:05

16.7 C

1008.4 hpa

86 %

0.0 km/h aus 117

0.0 km/h aus ---

14.4 C

16.9 C

16.7 C

16.9 C

77 W/m

0.00 mm

07:10

16.9 C

1008.4 hpa

87 %

0.0 km/h aus 114

0.0 km/h aus ---

14.8 C

17.2 C

16.9 C

17.2 C

92 W/m

0.00 mm

07:15

17.2 C

1008.4 hpa

87 %

0.0 km/h aus 116

0.0 km/h aus ---

15.0 C

17.6 C

17.2 C

17.6 C

103 W/m

0.00 mm

07:20

17.6 C

1008.4 hpa

88 %

0.0 km/h aus 117

0.0 km/h aus ---

15.6 C

18.0 C

17.6 C

18.0 C

118 W/m

0.00 mm

07:25

17.9 C

1008.4 hpa

88 %

0.0 km/h aus 116

0.0 km/h aus ---

15.9 C

18.3 C

17.9 C

18.3 C

131 W/m

0.00 mm

07:30

18.3 C

1008.3 hpa

88 %

0.0 km/h aus 115

0.0 km/h aus ---

16.3 C

18.8 C

18.3 C

18.8 C

148 W/m

0.00 mm

07:35

18.7 C

1008.3 hpa

87 %

0.0 km/h aus 116

0.0 km/h aus ---

16.5 C

19.2 C

18.7 C

19.2 C

164 W/m

0.00 mm

07:40

18.9 C

1008.3 hpa

87 %

0.0 km/h aus 116

0.0 km/h aus ---

16.7 C

19.6 C

18.9 C

19.6 C

179 W/m

0.00 mm

07:45

19.3 C

1008.4 hpa

86 %

0.0 km/h aus 117

0.0 km/h aus ---

16.9 C

20.1 C

19.3 C

20.1 C

194 W/m

0.00 mm

07:50

19.7 C

1008.4 hpa

85 %

0.0 km/h aus 116

0.0 km/h aus ---

17.1 C

20.4 C

19.7 C

20.4 C

208 W/m

0.00 mm

07:55

19.9 C

1008.4 hpa

85 %

0.0 km/h aus 114

0.0 km/h aus ---

17.3 C

20.8 C

19.9 C

20.8 C

223 W/m

0.00 mm

08:00

20.4 C

1008.3 hpa

83 %

0.0 km/h aus 117

0.0 km/h aus ---

17.4 C

21.3 C

20.4 C

21.3 C

239 W/m

0.00 mm

08:05

20.8 C

1008.3 hpa

81 %

0.0 km/h aus 117

0.0 km/h aus ---

17.5 C

21.6 C

20.8 C

21.6 C

255 W/m

0.00 mm

08:10

21.2 C

1008.3 hpa

79 %

0.0 km/h aus 116

0.0 km/h aus ---

17.4 C

21.8 C

21.2 C

21.8 C

268 W/m

0.00 mm

08:15

21.7 C

1008.3 hpa

78 %

0.0 km/h aus 114

0.0 km/h aus ---

17.7 C

22.3 C

21.7 C

22.3 C

280 W/m

0.00 mm

08:20

22.2 C

1008.3 hpa

76 %

0.0 km/h aus 117

0.0 km/h aus ---

17.7 C

22.8 C

22.2 C

22.8 C

293 W/m

0.00 mm

08:25

22.6 C

1008.3 hpa

74 %

0.0 km/h aus 116

0.0 km/h aus ---

17.7 C

23.3 C

22.6 C

23.3 C

303 W/m

0.00 mm

08:30

23.0 C

1008.3 hpa

72 %

0.0 km/h aus 117

0.0 km/h aus ---

17.7 C

23.8 C

23.0 C

23.8 C

313 W/m

0.00 mm

08:35

23.4 C

1008.3 hpa

71 %

0.0 km/h aus 114

0.0 km/h aus ---

17.8 C

24.3 C

23.4 C

24.3 C

327 W/m

0.00 mm

08:40

23.7 C

1008.3 hpa

70 %

0.0 km/h aus 116

0.0 km/h aus ---

17.9 C

24.7 C

23.7 C

24.7 C

341 W/m

0.00 mm

08:45

24.2 C

1008.0 hpa

68 %

0.0 km/h aus 116

0.0 km/h aus ---

17.9 C

25.1 C

24.2 C

25.1 C

353 W/m

0.00 mm

08:50

24.6 C

1008.0 hpa

66 %

0.0 km/h aus 117

0.0 km/h aus ---

17.8 C

25.3 C

24.6 C

25.3 C

365 W/m

0.00 mm

08:55

24.9 C

1008.0 hpa

66 %

0.0 km/h aus 114

0.0 km/h aus ---

18.1 C

25.7 C

24.9 C

25.7 C

376 W/m

0.00 mm

09:00

25.2 C

1008.0 hpa

64 %

0.0 km/h aus 115

4.8 km/h aus N

17.9 C

25.9 C

25.2 C

25.9 C

386 W/m

0.00 mm

09:05

25.2 C

1008.0 hpa

62 %

4.8 km/h aus 117

11.3 km/h aus ESE

17.4 C

25.7 C

25.2 C

25.7 C

397 W/m

0.00 mm

09:10

24.7 C

1008.0 hpa

63 %

3.2 km/h aus 118

8.0 km/h aus SE

17.2 C

25.2 C

24.7 C

25.2 C

409 W/m

0.00 mm

09:15

24.9 C

1008.2 hpa

64 %

1.6 km/h aus 114

8.0 km/h aus SE

17.6 C

25.6 C

24.9 C

25.6 C

420 W/m

0.00 mm

09:20

25.0 C

1008.2 hpa

64 %

1.6 km/h aus 114

8.0 km/h aus SE

17.7 C

25.7 C

25.0 C

25.7 C

433 W/m

0.00 mm

09:25

25.0 C

1008.2 hpa

64 %

1.6 km/h aus 117

11.3 km/h aus SE

17.7 C

25.7 C

25.0 C

25.7 C

441 W/m

0.00 mm

09:30

25.1 C

1008.1 hpa

64 %

3.2 km/h aus 117

8.0 km/h aus SE

17.8 C

25.8 C

25.1 C

25.8 C

451 W/m

0.00 mm

09:35

25.3 C

1008.1 hpa

65 %

1.6 km/h aus 116

8.0 km/h aus ESE

18.2 C

26.1 C

25.3 C

26.1 C

458 W/m

0.00 mm

09:40

25.7 C

1008.1 hpa

63 %

3.2 km/h aus 114

9.7 km/h aus E

18.1 C

26.4 C

25.7 C

26.4 C

468 W/m

0.00 mm

09:45

25.9 C

1008.0 hpa

61 %

6.4 km/h aus 115

17.7 km/h aus ENE

17.8 C

26.6 C

25.9 C

26.6 C

476 W/m

0.00 mm

09:50

26.6 C

1008.0 hpa

60 %

4.8 km/h aus 117

16.1 km/h aus ESE

18.2 C

27.3 C

26.6 C

27.3 C

484 W/m

0.00 mm

09:55

26.5 C

1008.0 hpa

58 %

4.8 km/h aus 116

16.1 km/h aus SSE

17.6 C

27.1 C

26.5 C

27.1 C

494 W/m

0.00 mm

10:00

26.8 C

1007.9 hpa

58 %

3.2 km/h aus 115

11.3 km/h aus ESE

17.8 C

27.4 C

26.8 C

27.4 C

501 W/m

0.00 mm

10:05

27.1 C

1007.9 hpa

58 %

6.4 km/h aus 116

14.5 km/h aus SE

18.1 C

27.8 C

27.1 C

27.8 C

511 W/m

0.00 mm

10:10

27.0 C

1007.9 hpa

57 %

8.0 km/h aus 118

22.5 km/h aus SE

17.8 C

27.6 C

27.0 C

27.6 C

515 W/m

0.00 mm

10:15

27.1 C

1007.9 hpa

57 %

9.7 km/h aus 115

22.5 km/h aus SE

17.8 C

27.7 C

27.1 C

27.7 C

519 W/m

0.00 mm

10:20

27.2 C

1007.9 hpa

56 %

8.0 km/h aus 114

17.7 km/h aus SE

17.6 C

27.7 C

27.2 C

27.7 C

526 W/m

0.00 mm

10:25

27.2 C

1007.9 hpa

56 %

8.0 km/h aus 117

16.1 km/h aus ESE

17.7 C

27.8 C

27.2 C

27.8 C

531 W/m

0.00 mm

10:30

26.9 C

1007.7 hpa

59 %

3.2 km/h aus 117

11.3 km/h aus E

18.3 C

27.7 C

26.9 C

27.7 C

539 W/m

0.00 mm

10:35

27.3 C

1007.7 hpa

56 %

11.3 km/h aus 117

19.3 km/h aus ESE

17.7 C

27.9 C

27.3 C

27.9 C

542 W/m

0.00 mm

10:40

27.0 C

1007.7 hpa

57 %

8.0 km/h aus 114

19.3 km/h aus SE

17.8 C

27.6 C

27.0 C

27.6 C

551 W/m

0.00 mm

10:45

27.5 C

1007.4 hpa

55 %

6.4 km/h aus 117

14.5 km/h aus ESE

17.7 C

28.2 C

27.5 C

28.2 C

555 W/m

0.00 mm

10:50

27.4 C

1007.4 hpa

55 %

6.4 km/h aus 117

17.7 km/h aus ESE

17.6 C

28.1 C

27.4 C

28.1 C

556 W/m

0.00 mm

10:55

27.6 C

1007.4 hpa

55 %

9.7 km/h aus 117

19.3 km/h aus E

17.8 C

28.3 C

27.6 C

28.3 C

559 W/m

0.00 mm

11:00

27.9 C

1007.2 hpa

55 %

4.8 km/h aus 115

14.5 km/h aus ESE

18.1 C

28.8 C

27.9 C

28.8 C

562 W/m

0.00 mm

11:05

28.1 C

1007.2 hpa

53 %

4.8 km/h aus 114

11.3 km/h aus ESE

17.6 C

28.8 C

28.1 C

28.8 C

565 W/m

0.00 mm

11:10

28.4 C

1007.2 hpa

53 %

6.4 km/h aus 116

24.1 km/h aus ESE

17.9 C

29.4 C

28.4 C

29.4 C

572 W/m

0.00 mm

11:15

28.5 C

1006.9 hpa

52 %

4.8 km/h aus 118

24.1 km/h aus SE

17.7 C

29.4 C

28.5 C

29.4 C

581 W/m

0.00 mm

11:20

28.8 C

1006.9 hpa

51 %

6.4 km/h aus 115

19.3 km/h aus NNE

17.6 C

29.8 C

28.8 C

29.8 C

585 W/m

0.00 mm

11:25

28.6 C

1006.9 hpa

51 %

9.7 km/h aus 114

22.5 km/h aus NE

17.4 C

29.4 C

28.6 C

29.4 C

518 W/m

0.00 mm

11:30

27.8 C

1006.8 hpa

54 %

4.8 km/h aus 117

17.7 km/h aus NE

17.6 C

28.4 C

27.8 C

28.4 C

374 W/m

0.00 mm

11:35

28.3 C

1006.8 hpa

53 %

9.7 km/h aus 117

24.1 km/h aus ESE

17.8 C

29.2 C

28.3 C

29.2 C

596 W/m

0.00 mm

11:40

28.5 C

1006.8 hpa

51 %

8.0 km/h aus 116

24.1 km/h aus NNE

17.4 C

29.3 C

28.5 C

29.3 C

508 W/m

0.00 mm

11:45

28.1 C

1006.7 hpa

52 %

9.7 km/h aus 114

17.7 km/h aus SE

17.3 C

28.8 C

28.1 C

28.8 C

445 W/m

0.00 mm

11:50

28.2 C

1006.7 hpa

53 %

4.8 km/h aus 116

19.3 km/h aus NE

17.7 C

29.0 C

28.2 C

29.0 C

606 W/m

0.00 mm

11:55

28.6 C

1006.7 hpa

51 %

9.7 km/h aus 115

22.5 km/h aus E

17.4 C

29.4 C

28.6 C

29.4 C

602 W/m

0.00 mm

12:00

28.8 C

1006.7 hpa

50 %

9.7 km/h aus 117

19.3 km/h aus E

17.4 C

29.8 C

28.8 C

29.8 C

605 W/m

0.00 mm

12:05

28.7 C

1006.7 hpa

50 %

8.0 km/h aus 114

16.1 km/h aus ESE

17.3 C

29.6 C

28.7 C

29.6 C

598 W/m

0.00 mm

12:10

29.3 C

1006.7 hpa

48 %

3.2 km/h aus 117

16.1 km/h aus SSE

17.2 C

30.2 C

29.3 C

30.2 C

597 W/m

0.00 mm

12:15

29.5 C

1006.3 hpa

49 %

6.4 km/h aus 114

17.7 km/h aus ESE

17.7 C

30.4 C

29.5 C

30.4 C

590 W/m

0.00 mm

12:20

29.2 C

1006.3 hpa

49 %

8.0 km/h aus 118

20.9 km/h aus ESE

17.4 C

30.1 C

29.2 C

30.1 C

562 W/m

0.00 mm

12:25

28.9 C

1006.3 hpa

50 %

6.4 km/h aus 115

17.7 km/h aus ENE

17.4 C

29.9 C

28.9 C

29.9 C

397 W/m

0.00 mm

12:30

28.3 C

1006.2 hpa

51 %

3.2 km/h aus 115

14.5 km/h aus E

17.2 C

29.1 C

28.3 C

29.1 C

340 W/m

0.00 mm

12:35

28.7 C

1006.2 hpa

50 %

9.7 km/h aus 117

25.7 km/h aus NE

17.2 C

29.6 C

28.7 C

29.6 C

494 W/m

0.00 mm

12:40

28.9 C

1006.2 hpa

49 %

9.7 km/h aus 117

22.5 km/h aus ESE

17.2 C

29.9 C

28.9 C

29.9 C

612 W/m

0.00 mm

12:45

29.9 C

1005.9 hpa

47 %

6.4 km/h aus 114

19.3 km/h aus ESE

17.4 C

30.7 C

29.9 C

30.7 C

605 W/m

0.00 mm

12:50

30.6 C

1005.9 hpa

45 %

14.5 km/h aus 115

27.4 km/h aus SSE

17.3 C

31.3 C

30.4 C

31.5 C

606 W/m

0.00 mm

12:55

31.2 C

1005.9 hpa

45 %

9.7 km/h aus 117

27.4 km/h aus SSE

17.9 C

32.3 C

31.2 C

32.3 C

606 W/m

0.00 mm

13:00

30.8 C

1005.8 hpa

43 %

4.8 km/h aus 116

20.9 km/h aus ESE

16.8 C

31.4 C

30.8 C

31.4 C

611 W/m

0.00 mm

13:05

30.6 C

1005.8 hpa

45 %

14.5 km/h aus 115

22.5 km/h aus E

17.3 C

31.3 C

30.4 C

31.5 C

591 W/m

0.00 mm

13:10

30.7 C

1005.8 hpa

45 %

8.0 km/h aus 116

17.7 km/h aus ENE

17.4 C

31.6 C

30.7 C

31.6 C

599 W/m

0.00 mm

13:15

30.7 C

1005.8 hpa

43 %

6.4 km/h aus 117

12.9 km/h aus S

16.7 C

31.3 C

30.7 C

31.3 C

606 W/m

0.00 mm

13:20

30.2 C

1005.8 hpa

43 %

9.7 km/h aus 117

24.1 km/h aus ENE

16.3 C

30.7 C

30.2 C

30.7 C

461 W/m

0.00 mm

13:25

29.7 C

1005.8 hpa

46 %

11.3 km/h aus 116

25.7 km/h aus SE

16.9 C

30.4 C

29.7 C

30.4 C

288 W/m

0.00 mm

13:30

30.0 C

1005.7 hpa

46 %

12.9 km/h aus 115

24.1 km/h aus E

17.1 C

30.6 C

29.9 C

30.7 C

609 W/m

0.00 mm

13:35

29.9 C

1005.7 hpa

45 %

4.8 km/h aus 117

16.1 km/h aus SE

16.7 C

30.6 C

29.9 C

30.6 C

209 W/m

0.00 mm

13:40

29.7 C

1005.7 hpa

45 %

8.0 km/h aus 117

19.3 km/h aus ESE

16.5 C

30.2 C

29.7 C

30.2 C

197 W/m

0.00 mm

13:45

29.4 C

1005.4 hpa

46 %

9.7 km/h aus 116

20.9 km/h aus E

16.6 C

30.1 C

29.4 C

30.1 C

373 W/m

0.00 mm

13:50

30.3 C

1005.4 hpa

45 %

11.3 km/h aus 113

24.1 km/h aus ESE

17.0 C

31.0 C

30.3 C

31.0 C

607 W/m

0.00 mm

13:55

30.7 C

1005.4 hpa

44 %

9.7 km/h aus 117

22.5 km/h aus ESE

17.1 C

31.5 C

30.7 C

31.5 C

596 W/m

0.00 mm

14:00

30.8 C

1005.3 hpa

44 %

11.3 km/h aus 117

25.7 km/h aus SE

17.1 C

31.6 C

30.8 C

31.6 C

598 W/m

0.00 mm

14:05

31.3 C

1005.3 hpa

43 %

6.4 km/h aus 116

20.9 km/h aus ESE

17.2 C

32.1 C

31.3 C

32.1 C

591 W/m

0.00 mm

14:10

31.0 C

1005.3 hpa

44 %

9.7 km/h aus 115

17.7 km/h aus ESE

17.3 C

31.8 C

31.0 C

31.8 C

591 W/m

0.00 mm

14:15

30.3 C

1005.0 hpa

43 %

9.7 km/h aus 117

25.7 km/h aus ENE

16.4 C

30.9 C

30.3 C

30.9 C

244 W/m

0.00 mm

14:20

30.7 C

1005.0 hpa

44 %

11.3 km/h aus 117

24.1 km/h aus ESE

17.1 C

31.5 C

30.7 C

31.5 C

601 W/m

0.00 mm

14:25

31.0 C

1005.0 hpa

42 %

9.7 km/h aus 117

20.9 km/h aus ESE

16.6 C

31.4 C

31.0 C

31.4 C

597 W/m

0.00 mm

14:30

31.2 C

1004.7 hpa

40 %

12.9 km/h aus 115

24.1 km/h aus ESE

16.0 C

31.3 C

31.2 C

31.4 C

590 W/m

0.00 mm

14:35

31.2 C

1004.7 hpa

41 %

14.5 km/h aus 116

32.2 km/h aus ENE

16.4 C

31.4 C

31.1 C

31.6 C

596 W/m

0.00 mm

14:40

30.2 C

1004.7 hpa

43 %

9.7 km/h aus 116

20.9 km/h aus ESE

16.3 C

30.7 C

30.2 C

30.7 C

289 W/m

0.00 mm

14:45

29.9 C

1004.7 hpa

44 %

6.4 km/h aus 115

16.1 km/h aus E

16.4 C

30.4 C

29.9 C

30.4 C

443 W/m

0.00 mm

14:50

30.8 C

1004.7 hpa

43 %

8.0 km/h aus 115

20.9 km/h aus SE

16.8 C

31.4 C

30.8 C

31.4 C

520 W/m

0.00 mm

14:55

31.7 C

1004.7 hpa

41 %

12.9 km/h aus 117

25.7 km/h aus SE

16.8 C

32.4 C

31.7 C

32.4 C

597 W/m

0.00 mm

15:00

31.3 C

1004.3 hpa

41 %

14.5 km/h aus 117

27.4 km/h aus ESE

16.5 C

31.7 C

31.2 C

31.8 C

586 W/m

0.00 mm

15:05

31.4 C

1004.3 hpa

42 %

11.3 km/h aus 114

24.1 km/h aus ESE

16.9 C

32.1 C

31.4 C

32.1 C

574 W/m

0.00 mm

15:10

31.2 C

1004.3 hpa

41 %

9.7 km/h aus 116

29.0 km/h aus S

16.4 C

31.6 C

31.2 C

31.6 C

573 W/m

0.00 mm

15:15

31.7 C

1003.9 hpa

40 %

8.0 km/h aus 116

20.9 km/h aus ENE

16.5 C

32.3 C

31.7 C

32.3 C

571 W/m

0.00 mm

15:20

31.3 C

1003.9 hpa

40 %

16.1 km/h aus 117

32.2 km/h aus ESE

16.1 C

31.4 C

31.2 C

31.6 C

567 W/m

0.00 mm

15:25

31.9 C

1003.9 hpa

38 %

14.5 km/h aus 114

25.7 km/h aus ESE

15.9 C

32.2 C

31.9 C

32.2 C

565 W/m

0.00 mm

15:30

32.0 C

1003.8 hpa

39 %

11.3 km/h aus 117

24.1 km/h aus SE

16.3 C

32.4 C

32.0 C

32.4 C

561 W/m

0.00 mm

15:35

31.7 C

1003.8 hpa

40 %

9.7 km/h aus 117

20.9 km/h aus ESE

16.4 C

32.2 C

31.7 C

32.2 C

548 W/m

0.00 mm

15:40

30.9 C

1003.8 hpa

40 %

14.5 km/h aus 116

27.4 km/h aus E

15.8 C

30.9 C

30.8 C

31.1 C

549 W/m

0.00 mm

15:45

31.1 C

1003.8 hpa

40 %

11.3 km/h aus 113

27.4 km/h aus ESE

15.9 C

31.2 C

31.1 C

31.2 C

551 W/m

0.00 mm

15:50

31.3 C

1003.8 hpa

40 %

9.7 km/h aus 117

24.1 km/h aus E

16.1 C

31.5 C

31.3 C

31.5 C

541 W/m

0.00 mm

15:55

31.8 C

1003.8 hpa

40 %

12.9 km/h aus 116

29.0 km/h aus SE

16.5 C

32.3 C

31.8 C

32.3 C

547 W/m

0.00 mm

16:00

31.4 C

1003.7 hpa

40 %

14.5 km/h aus 114

24.1 km/h aus ESE

16.2 C

31.7 C

31.3 C

31.8 C

546 W/m

0.00 mm

16:05

31.8 C

1003.7 hpa

39 %

16.1 km/h aus 116

29.0 km/h aus ESE

16.2 C

32.2 C

31.8 C

32.2 C

555 W/m

0.00 mm

16:10

31.7 C

1003.7 hpa

41 %

12.9 km/h aus 116

24.1 km/h aus ESE

16.9 C

32.5 C

31.7 C

32.5 C

561 W/m

0.00 mm

16:15

31.3 C

1003.5 hpa

40 %

11.3 km/h aus 117

22.5 km/h aus ESE

16.1 C

31.6 C

31.3 C

31.6 C

536 W/m

0.00 mm

16:20

31.1 C

1003.5 hpa

41 %

12.9 km/h aus 115

24.1 km/h aus SE

16.3 C

31.3 C

31.1 C

31.3 C

547 W/m

0.00 mm

16:25

31.2 C

1003.5 hpa

41 %

11.3 km/h aus 116

20.9 km/h aus ESE

16.4 C

31.4 C

31.2 C

31.4 C

558 W/m

0.00 mm

16:30

31.2 C

1003.2 hpa

42 %

6.4 km/h aus 117

19.3 km/h aus ENE

16.7 C

31.6 C

31.2 C

31.6 C

427 W/m

0.00 mm

16:35

31.6 C

1003.2 hpa

40 %

8.0 km/h aus 117

16.1 km/h aus S

16.3 C

32.0 C

31.6 C

32.0 C

541 W/m

0.00 mm

16:40

31.1 C

1003.2 hpa

40 %

4.8 km/h aus 115

12.9 km/h aus SE

15.9 C

31.1 C

31.1 C

31.1 C

321 W/m

0.00 mm

16:45

31.7 C

1003.2 hpa

40 %

6.4 km/h aus 116

11.3 km/h aus SE

16.4 C

32.2 C

31.7 C

32.2 C

439 W/m

0.00 mm

16:50

31.6 C

1003.2 hpa

41 %

8.0 km/h aus 117

22.5 km/h aus SSE

16.8 C

32.3 C

31.6 C

32.3 C

420 W/m

0.00 mm

16:55

31.8 C

1003.2 hpa

39 %

11.3 km/h aus 117

20.9 km/h aus ENE

16.2 C

32.2 C

31.8 C

32.2 C

449 W/m

0.00 mm

17:00

31.3 C

1003.2 hpa

40 %

11.3 km/h aus 115

25.7 km/h aus ESE

16.1 C

31.6 C

31.3 C

31.6 C

177 W/m

0.00 mm

17:05

30.9 C

1003.2 hpa

41 %

9.7 km/h aus 116

20.9 km/h aus ESE

16.1 C

31.2 C

30.9 C

31.2 C

169 W/m

0.00 mm

17:10

30.7 C

1003.2 hpa

40 %

11.3 km/h aus 117

22.5 km/h aus ESE

15.5 C

30.8 C

30.7 C

30.8 C

170 W/m

0.00 mm

17:15

30.4 C

1003.0 hpa

41 %

8.0 km/h aus 117

20.9 km/h aus ESE

15.7 C

30.8 C

30.4 C

30.8 C

174 W/m

0.00 mm

17:20

30.3 C

1003.0 hpa

42 %

6.4 km/h aus 114

17.7 km/h aus ESE

16.0 C

30.8 C

30.3 C

30.8 C

173 W/m

0.00 mm

17:25

30.4 C

1003.0 hpa

42 %

8.0 km/h aus 116

16.1 km/h aus ESE

16.1 C

30.9 C

30.4 C

30.9 C

235 W/m

0.00 mm

17:30

30.3 C

1002.7 hpa

42 %

4.8 km/h aus 117

14.5 km/h aus ESE

15.9 C

30.7 C

30.3 C

30.7 C

151 W/m

0.00 mm

17:35

30.3 C

1002.7 hpa

42 %

4.8 km/h aus 117

11.3 km/h aus E

15.9 C

30.7 C

30.3 C

30.7 C

247 W/m

0.00 mm

17:40

30.2 C

1002.7 hpa

44 %

1.6 km/h aus 114

8.0 km/h aus E

16.6 C

30.8 C

30.2 C

30.8 C

325 W/m

0.00 mm

17:45

30.7 C

1002.6 hpa

41 %

1.6 km/h aus 117

9.7 km/h aus SE

15.9 C

31.0 C

30.7 C

31.0 C

376 W/m

0.00 mm

17:50

30.3 C

1002.6 hpa

48 %

4.8 km/h aus 115

16.1 km/h aus SSE

18.0 C

31.4 C

30.3 C

31.4 C

354 W/m

0.00 mm

17:55

29.8 C

1002.6 hpa

50 %

11.3 km/h aus 116

22.5 km/h aus SSE

18.2 C

30.9 C

29.8 C

30.9 C

375 W/m

0.00 mm

18:00

29.6 C

1002.6 hpa

50 %

6.4 km/h aus 115

11.3 km/h aus SE

18.0 C

30.6 C

29.6 C

30.6 C

316 W/m

0.00 mm

18:05

29.8 C

1002.6 hpa

47 %

1.6 km/h aus 117

6.4 km/h aus SE

17.3 C

30.7 C

29.8 C

30.7 C

299 W/m

0.00 mm

18:10

30.1 C

1002.6 hpa

45 %

4.8 km/h aus 116

22.5 km/h aus E

16.8 C

30.7 C

30.1 C

30.7 C

216 W/m

0.00 mm

18:15

29.8 C

1002.5 hpa

43 %

8.0 km/h aus 115

17.7 km/h aus ESE

15.9 C

30.2 C

29.8 C

30.2 C

170 W/m

0.00 mm

18:20

29.9 C

1002.5 hpa

43 %

4.8 km/h aus 115

17.7 km/h aus SE

16.0 C

30.3 C

29.9 C

30.3 C

192 W/m

0.00 mm

18:25

29.9 C

1002.5 hpa

44 %

0.0 km/h aus 117

1.6 km/h aus ESE

16.3 C

30.4 C

29.9 C

30.4 C

144 W/m

0.00 mm

18:30

29.8 C

1002.3 hpa

44 %

0.0 km/h aus 117

3.2 km/h aus ESE

16.2 C

30.3 C

29.8 C

30.3 C

135 W/m

0.00 mm

18:35

29.8 C

1002.3 hpa

43 %

3.2 km/h aus 117

11.3 km/h aus ESE

15.9 C

30.2 C

29.8 C

30.2 C

120 W/m

0.00 mm

18:40

29.8 C

1002.3 hpa

42 %

4.8 km/h aus 114

14.5 km/h aus ENE

15.5 C

30.1 C

29.8 C

30.1 C

97 W/m

0.00 mm

18:45

29.7 C

1002.2 hpa

43 %

3.2 km/h aus 117

16.1 km/h aus E

15.8 C

30.1 C

29.7 C

30.1 C

121 W/m

0.00 mm

18:50

29.7 C

1002.2 hpa

44 %

1.6 km/h aus 117

6.4 km/h aus ESE

16.2 C

30.2 C

29.7 C

30.2 C

189 W/m

0.00 mm

18:55

29.8 C

1002.2 hpa

43 %

1.6 km/h aus 116

8.0 km/h aus ESE

15.9 C

30.2 C

29.8 C

30.2 C

97 W/m

0.00 mm

19:00

29.8 C

1002.1 hpa

44 %

0.0 km/h aus 114

6.4 km/h aus ESE

16.2 C

30.3 C

29.8 C

30.3 C

87 W/m

0.00 mm

19:05

29.8 C

1002.1 hpa

44 %

0.0 km/h aus 117

0.0 km/h aus ---

16.2 C

30.3 C

29.8 C

30.3 C

93 W/m

0.00 mm

19:10

29.8 C

1002.1 hpa

43 %

0.0 km/h aus 117

0.0 km/h aus ---

15.9 C

30.2 C

29.8 C

30.2 C

88 W/m

0.00 mm

19:15

29.8 C

1002.1 hpa

44 %

0.0 km/h aus 115

0.0 km/h aus ---

16.2 C

30.3 C

29.8 C

30.3 C

74 W/m

0.00 mm

19:20

29.8 C

1002.1 hpa

44 %

0.0 km/h aus 116

0.0 km/h aus ---

16.2 C

30.3 C

29.8 C

30.3 C

64 W/m

0.00 mm

19:25

29.7 C

1002.1 hpa

43 %

1.6 km/h aus 117

8.0 km/h aus E

15.8 C

30.1 C

29.7 C

30.1 C

59 W/m

0.00 mm

19:30

29.7 C

1002.0 hpa

44 %

0.0 km/h aus 116

0.0 km/h aus ---

16.1 C

30.2 C

29.7 C

30.2 C

64 W/m

0.00 mm

19:35

29.6 C

1002.0 hpa

44 %

0.0 km/h aus 115

0.0 km/h aus ---

16.1 C

30.1 C

29.6 C

30.1 C

58 W/m

0.00 mm

19:40

29.6 C

1002.0 hpa

44 %

0.0 km/h aus 116

0.0 km/h aus ---

16.0 C

30.0 C

29.6 C

30.0 C

53 W/m

0.00 mm

19:45

29.5 C

1002.0 hpa

44 %

0.0 km/h aus 117

0.0 km/h aus ---

16.0 C

29.9 C

29.5 C

29.9 C

49 W/m

0.00 mm

19:50

29.4 C

1002.0 hpa

44 %

0.0 km/h aus 117

0.0 km/h aus ---

15.9 C

29.9 C

29.4 C

29.9 C

42 W/m

0.00 mm

19:55

29.3 C

1002.0 hpa

44 %

0.0 km/h aus 115

0.0 km/h aus ---

15.8 C

29.8 C

29.3 C

29.8 C

39 W/m

0.00 mm

20:00

29.2 C

1002.1 hpa

44 %

0.0 km/h aus 116

6.4 km/h aus E

15.7 C

29.7 C

29.2 C

29.7 C

30 W/m

0.00 mm

20:05

29.1 C

1002.1 hpa

44 %

1.6 km/h aus 116

6.4 km/h aus E

15.6 C

29.6 C

29.1 C

29.6 C

24 W/m

0.00 mm

20:10

29.0 C

1002.1 hpa

44 %

0.0 km/h aus 117

1.6 km/h aus E

15.5 C

29.5 C

29.0 C

29.5 C

21 W/m

0.00 mm

20:15

28.9 C

1002.1 hpa

45 %

0.0 km/h aus 115

1.6 km/h aus E

15.8 C

29.5 C

28.9 C

29.5 C

14 W/m

0.00 mm

20:20

28.8 C

1002.1 hpa

45 %

0.0 km/h aus 116

4.8 km/h aus E

15.7 C

29.3 C

28.8 C

29.3 C

8 W/m

0.00 mm

20:25

28.7 C

1002.1 hpa

45 %

0.0 km/h aus 117

1.6 km/h aus E

15.6 C

29.2 C

28.7 C

29.2 C

6 W/m

0.00 mm

20:30

28.6 C

1002.1 hpa

45 %

0.0 km/h aus 117

0.0 km/h aus ---

15.5 C

29.1 C

28.6 C

29.1 C

3 W/m

0.00 mm

20:35

28.5 C

1002.1 hpa

45 %

0.0 km/h aus 115

0.0 km/h aus ---

15.4 C

28.9 C

28.5 C

28.9 C

0 W/m

0.00 mm

20:40

28.4 C

1002.1 hpa

46 %

0.0 km/h aus 117

1.6 km/h aus E

15.7 C

28.9 C

28.4 C

28.9 C

0 W/m

0.00 mm

20:45

28.3 C

1002.1 hpa

46 %

0.0 km/h aus 117

0.0 km/h aus ---

15.6 C

28.7 C

28.3 C

28.7 C

0 W/m

0.00 mm

20:50

28.2 C

1002.1 hpa

46 %

0.0 km/h aus 117

0.0 km/h aus ---

15.5 C

28.5 C

28.2 C

28.5 C

0 W/m

0.00 mm

20:55

28.1 C

1002.1 hpa

46 %

0.0 km/h aus 115

0.0 km/h aus ---

15.4 C

28.3 C

28.1 C

28.3 C

0 W/m

0.00 mm

21:00

27.9 C

1002.1 hpa

47 %

0.0 km/h aus 116

1.6 km/h aus E

15.6 C

28.2 C

27.9 C

28.2 C

0 W/m

0.00 mm

21:05

27.8 C

1002.1 hpa

47 %

0.0 km/h aus 116

0.0 km/h aus ---

15.5 C

27.9 C

27.8 C

27.9 C

0 W/m

0.00 mm

21:10

27.7 C

1002.1 hpa

47 %

0.0 km/h aus 116

4.8 km/h aus E

15.4 C

27.8 C

27.7 C

27.8 C

0 W/m

0.00 mm

21:15

27.6 C

1002.0 hpa

47 %

0.0 km/h aus 113

3.2 km/h aus E

15.3 C

27.7 C

27.6 C

27.7 C

0 W/m

0.00 mm

21:20

27.6 C

1002.0 hpa

47 %

1.6 km/h aus 115

4.8 km/h aus E

15.2 C

27.6 C

27.6 C

27.6 C

0 W/m

0.00 mm

21:25

27.4 C

1002.0 hpa

48 %

0.0 km/h aus 116

0.0 km/h aus ---

15.5 C

27.5 C

27.4 C

27.5 C

0 W/m

0.00 mm

21:30

27.3 C

1002.0 hpa

48 %

0.0 km/h aus 116

0.0 km/h aus ---

15.4 C

27.3 C

27.3 C

27.3 C

0 W/m

0.00 mm

21:35

27.2 C

1002.0 hpa

49 %

0.0 km/h aus 114

3.2 km/h aus E

15.6 C

27.3 C

27.2 C

27.3 C

0 W/m

0.00 mm

21:40

27.1 C

1002.0 hpa

49 %

0.0 km/h aus 116

3.2 km/h aus E

15.4 C

27.1 C

27.1 C

27.1 C

0 W/m

0.00 mm

21:45

26.9 C

1001.9 hpa

49 %

0.0 km/h aus 117

4.8 km/h aus E

15.3 C

26.9 C

26.9 C

26.9 C

0 W/m

0.00 mm

21:50

26.8 C

1001.9 hpa

50 %

0.0 km/h aus 117

1.6 km/h aus E

15.5 C

26.9 C

26.8 C

26.9 C

0 W/m

0.00 mm

21:55

26.7 C

1001.9 hpa

50 %

0.0 km/h aus 114

4.8 km/h aus E

15.4 C

26.7 C

26.7 C

26.7 C

0 W/m

0.00 mm

22:00

26.6 C

1002.0 hpa

50 %

0.0 km/h aus 117

6.4 km/h aus E

15.3 C

26.6 C

26.6 C

26.6 C

0 W/m

0.00 mm

22:05

26.5 C

1002.0 hpa

50 %

0.0 km/h aus 115

0.0 km/h aus ---

15.2 C

26.6 C

26.5 C

26.6 C

0 W/m

0.00 mm

22:10

26.4 C

1002.0 hpa

51 %

0.0 km/h aus 117

4.8 km/h aus E

15.4 C

26.5 C

26.4 C

26.5 C

0 W/m

0.00 mm

22:15

26.3 C

1002.0 hpa

51 %

0.0 km/h aus 114

4.8 km/h aus E

15.3 C

26.4 C

26.3 C

26.4 C

0 W/m

0.00 mm

22:20

26.2 C

1002.0 hpa

51 %

1.6 km/h aus 117

8.0 km/h aus E

15.2 C

26.3 C

26.2 C

26.3 C

0 W/m

0.00 mm

22:25

26.1 C

1002.0 hpa

51 %

1.6 km/h aus 116

4.8 km/h aus E

15.1 C

26.2 C

26.1 C

26.2 C

0 W/m

0.00 mm

22:30

26.0 C

1002.0 hpa

51 %

1.6 km/h aus 116

4.8 km/h aus E

15.1 C

26.1 C

26.0 C

26.1 C

0 W/m

0.00 mm

22:35

25.9 C

1002.0 hpa

52 %

0.0 km/h aus 113

4.8 km/h aus E

15.3 C

26.1 C

25.9 C

26.1 C

0 W/m

0.00 mm

22:40

25.8 C

1002.0 hpa

52 %

1.6 km/h aus 116

4.8 km/h aus E

15.2 C

25.9 C

25.8 C

25.9 C

0 W/m

0.00 mm

22:45

25.7 C

1002.0 hpa

53 %

0.0 km/h aus 116

4.8 km/h aus E

15.4 C

25.9 C

25.7 C

25.9 C

0 W/m

0.00 mm

22:50

25.7 C

1002.0 hpa

54 %

1.6 km/h aus 116

6.4 km/h aus E

15.7 C

25.9 C

25.7 C

25.9 C

0 W/m

0.00 mm

22:55

25.6 C

1002.0 hpa

54 %

1.6 km/h aus 115

6.4 km/h aus E

15.6 C

25.8 C

25.6 C

25.8 C

0 W/m

0.00 mm

23:00

25.4 C

1001.8 hpa

54 %

0.0 km/h aus 115

1.6 km/h aus E

15.5 C

25.7 C

25.4 C

25.7 C

0 W/m

0.00 mm

23:05

25.4 C

1001.8 hpa

54 %

0.0 km/h aus 117

0.0 km/h aus ---

15.4 C

25.6 C

25.4 C

25.6 C

0 W/m

0.00 mm

23:10

25.3 C

1001.8 hpa

54 %

0.0 km/h aus 116

4.8 km/h aus E

15.4 C

25.5 C

25.3 C

25.5 C

0 W/m

0.00 mm

23:15

25.3 C

1001.8 hpa

54 %

1.6 km/h aus 114

6.4 km/h aus NE

15.3 C

25.4 C

25.3 C

25.4 C

0 W/m

0.00 mm

23:20

25.2 C

1001.8 hpa

53 %

1.6 km/h aus 117

6.4 km/h aus NE

15.0 C

25.3 C

25.2 C

25.3 C

0 W/m

0.00 mm

23:25

25.2 C

1001.8 hpa

53 %

1.6 km/h aus 117

9.7 km/h aus NE

14.9 C

25.3 C

25.2 C

25.3 C

0 W/m

0.00 mm

23:30

25.2 C

1001.7 hpa

53 %

3.2 km/h aus 115

9.7 km/h aus ENE

15.0 C

25.3 C

25.2 C

25.3 C

0 W/m

0.00 mm

23:35

25.3 C

1001.7 hpa

52 %

3.2 km/h aus 114

11.3 km/h aus ENE

14.8 C

25.4 C

25.3 C

25.4 C

0 W/m

0.00 mm

23:40

25.4 C

1001.7 hpa

52 %

4.8 km/h aus 117

11.3 km/h aus E

14.9 C

25.6 C

25.4 C

25.6 C

0 W/m

0.00 mm

23:45

25.6 C

1001.7 hpa

52 %

3.2 km/h aus 117

9.7 km/h aus E

15.0 C

25.7 C

25.6 C

25.7 C

0 W/m

0.00 mm

23:50

25.6 C

1001.7 hpa

51 %

6.4 km/h aus 117

12.9 km/h aus E

14.7 C

25.7 C

25.6 C

25.7 C

0 W/m

0.00 mm

23:55

25.7 C

1001.7 hpa

51 %

1.6 km/h aus 114

6.4 km/h aus E

14.8 C

25.7 C

25.7 C

25.7 C

0 W/m

0.00 mm